This is the latest recevied weather packets stored in our database for station/object EA3HRE-13. If no packets are shown the sender has not sent any weather packets the latest 10 day(s).
| Time | Temp. | Humidity | Pressure | Rain* | Wind** | Luminosity | Snow |
|---|---|---|---|---|---|---|---|
| 1777887245 | 22.78° C | 100% | 1012.7 hPa | 0 mm | - | - | - |
| 1777886645 | 22.78° C | 100% | 1012.7 hPa | 0 mm | - | - | - |
| 1777886045 | 21.11° C | 100% | 1012.7 hPa | 0 mm | - | - | - |
| 1777885445 | 21.11° C | 100% | 1013 hPa | 0 mm | - | - | - |
| 1777884845 | 20.56° C | 100% | 1013 hPa | 0 mm | - | - | - |
| 1777884245 | 20.56° C | 100% | 1013.1 hPa | 0 mm | - | - | - |
| 1777883645 | 20° C | 100% | 1013.3 hPa | 0 mm | - | - | - |
| 1777883045 | 20° C | 100% | 1013.3 hPa | 0 mm | - | - | - |
| 1777882415 | 20° C | 100% | 1013.5 hPa | 0 mm | - | - | - |
| 1777881815 | 19.44° C | 100% | 1013.5 hPa | 0 mm | - | - | - |
| 1777881214 | 18.89° C | 100% | 1013.5 hPa | 0 mm | - | - | - |
| 1777880615 | 18.89° C | 100% | 1013.4 hPa | 0 mm | - | - | - |
| 1777880014 | 19.44° C | 100% | 1013.4 hPa | 0 mm | - | - | - |
| 1777879384 | 18.89° C | 100% | 1013.4 hPa | 0 mm | - | - | - |
| 1777878784 | 19.44° C | 100% | 1013.5 hPa | 0 mm | - | - | - |
| 1777878154 | 19.44° C | 100% | 1013.5 hPa | 0 mm | - | - | - |
| 1777877554 | 18.33° C | 100% | 1013.7 hPa | 0 mm | - | - | - |
| 1777876924 | 18.33° C | 100% | 1013.6 hPa | 0 mm | - | - | - |
| 1777876312 | 18.33° C | 100% | 1013.7 hPa | 0 mm | - | - | - |
| 1777875711 | 18.33° C | 100% | 1013.8 hPa | 0 mm | - | - | - |
| 1777875082 | 17.22° C | 100% | 1013.7 hPa | 0 mm | - | - | - |
| 1777874482 | 17.22° C | 100% | 1013.7 hPa | 0 mm | - | - | - |
| 1777873881 | 16.67° C | 100% | 1013.5 hPa | 0 mm | - | - | - |
| 1777873281 | 16.67° C | 100% | 1013.5 hPa | 0 mm | - | - | - |
| 1777872651 | 16.11° C | 100% | 1013.6 hPa | 0 mm | - | - | - |
* Rain latest hour (hover to see other rain measurements)
** Current wind speed in m/s (hover to see current wind gust speed)